FW4318 Weather Reports


Display with metric or nautical units.
time (UTC)temp
F
wind
direction
speed
MPH
gust
MPH
rain 1hr
in
rain 24hr
in
rain mn
in
humidity
%
barometer
mb
20260502140112 45 212 8.0 11.0 0.00 0.00 0.00 39 868.8
20260502130110 45 235 7.0 10.0 0.00 0.00 0.00 44 868.8
20260502110055 46 187 5.0 7.0 0.00 0.00 0.00 43 868.8
20260502100113 45 209 6.0 10.0 0.00 0.00 0.00 50 868.9
20260502090110 44 167 5.0 9.0 0.00 0.00 0.00 56 869.0
20260502070140 45 200 7.0 8.0 0.00 0.00 0.00 46 869.0
20260502060112 44 234 4.0 6.0 0.00 0.00 0.00 46 869.0
20260502050050 44 243 4.0 5.0 0.00 0.00 0.00 58 869.3
20260502030047 44 254 2.0 5.0 0.00 0.00 0.00 63 869.2
20260502020053 46 120 2.0 6.0 0.00 0.00 0.00 60 869.1
20260502010115 47 115 7.0 10.0 0.00 0.00 0.00 58 869.3
20260502000050 48 112 9.0 12.0 0.00 0.00 0.00 52 869.7
20260501230118 51 138 1.0 5.0 0.00 0.00 0.00 53 870.1
20260501220101 49 119 7.0 12.0 0.00 0.00 0.00 56 870.5
20260501210109 46 121 14.0 19.0 0.00 0.00 0.00 61 870.7
20260501200051 45 86 10.0 16.0 0.00 0.00 0.00 61 870.5
20260501190359 45 105 11.0 15.0 0.00 0.00 0.00 58 870.8
20260501190230 45 105 11.0 15.0 0.00 0.00 0.00 58 870.8
20260501180105 43 115 12.0 16.0 0.00 0.00 0.00 67 870.9
20260501170112 45 131 4.0 9.0 0.00 0.00 0.00 63 870.8
20260501160027 44 134 2.0 9.0 0.00 0.00 0.00 57 870.7
20260501150415 42 173 4.0 10.0 0.00 0.00 0.00 58 870.3